{"data":{"norad_id":56463,"epoch":"2026-05-25T04:42:32.207040Z","epoch_age_seconds":72284,"freshness":"FRESH","line1":"1 56463U 23064R   26145.19620610  .00000163  00000+0  21486-4 0  9996","line2":"2 56463  69.9984 311.6400 0002592 263.0327  97.0537 14.98330172166706","mean_motion":14.98330172,"eccentricity":0.0002592,"inclination_deg":69.9984,"raan_deg":311.64,"arg_perigee_deg":263.0327,"mean_anomaly_deg":97.0537,"bstar":2.1486e-5,"rev_number":16670,"period_min":96.106988093142,"perigee_km":570.25386918919,"apogee_km":573.85684890812,"semimajor_km":6950.1923590487,"source":"CELESTRAK","updated_at":"2026-05-25T13:38:18.069261Z"}}